x

Buzzards Bay, Ma (buzm3) Weather Station

4:00 - Wed 29th Mar 2017 All times are EDT. -4 hours from GMT.

  • Wind
    18mph, 20mph gusts
  • Air Temp 39°f
  • Sea Pressure 1011.9mb
  • Buzzards Bay, Ma
  • Buzzards Bay, Ma

More Historic Weather Station data

Upgrade to MSW Pro to gain access to the past 30 days of data for over 8000 Wavebouys and Weather Stations around the globe.

Join Pro

Comparision Forecast

View Surf forecast
   
mer. 03/29 4:00 18 20 mph 1011.9mb 39f
3:00 20 21 mph 1011.4mb 39f
2:00 21 22 mph 1012mb 39f
1:00 18
mph
1012.6mb 39f
12:00 15 16 mph 1013.3mb 39f
mar. 03/28 11:00 15
mph
1013.3mb 39f
10:00 13 14 mph 1013.7mb 38f
9:00 14 15 mph 1013.9mb 38f
8:00 13 14 mph 1013.7mb 38f
7:00 13 14 mph 1013.5mb 38f
6:00 16 17 mph 1013.8mb 39f
5:00 13 14 mph 1014mb 39f
4:00 14 15 mph 1014.6mb 40f
3:00 6
mph
1016.5mb 39f
2:00 14
mph
1015.8mb 38f
1:00 16 17 mph 1015.4mb 38f
12:00 11 13 mph 1016.2mb 37f
11:00 14 15 mph 1016.5mb 37f
10:00 11
mph
1017.1mb 37f
9:00 13 14 mph 1017.1mb 36f
8:00 13 14 mph 1017.1mb 36f
7:00 10 11 mph 1017.1mb 37f
6:00 14 16 mph 1016mb 37f
5:00 15 16 mph 1016mb 37f
4:00 14 15 mph 1016.1mb 37f
3:00 9 10 mph 1016.5mb 39f
2:00 9
mph
1016.9mb 40f
1:00 10 11 mph 1017mb 41f
12:00 13
mph
1016.7mb 41f
lun. 03/27 11:00 15
mph
1016.6mb 42f
10:00 18 20 mph 1016.6mb 42f
9:00 8 9 mph 1016.5mb 42f
8:00 11 13 mph 1015.9mb 42f
7:00 11 13 mph 1015.5mb 42f
6:00 14
mph
1015.3mb 43f
5:00 17
mph
1015.7mb 43f
4:00 18 20 mph 1016.3mb 44f
3:00 22
mph
1016.7mb 44f
2:00 23 25 mph 1017.2mb 43f
1:00 25 26 mph 1017.9mb 42f
12:00 22 24 mph 1019.1mb 41f
11:00 22 23 mph 1019.8mb 41f
10:00 23 26 mph 1020.8mb 41f
9:00 24 26 mph 1021mb 40f
8:00 26 29 mph 1021.6mb 40f
7:00 20 21 mph 1023mb 40f
6:00 15 16 mph 1024.1mb 38f
5:00 13
mph
1024.8mb 38f
4:00 14 15 mph 1025.3mb 37f
3:00 15 16 mph 1026.2mb 35f
2:00 13 14 mph 1027.4mb 35f
1:00 16 17 mph 1028.3mb 36f
12:00 10 11 mph 1029.1mb 38f
dim. 03/26 11:00 15 16 mph 1029.1mb 37f
10:00 17 18 mph 1030mb 37f
9:00 15 17 mph 1030.9mb 37f
8:00 11 13 mph 1031.4mb 37f
7:00 10 11 mph 1031.6mb 37f
6:00 17 18 mph 1031.3mb 38f
5:00 18 20 mph 1031.9mb 38f
4:00 17 18 mph 1032.6mb 38f
3:00 17
mph
1033.2mb 38f
2:00 18 20 mph 1033.2mb 38f
1:00 21 22 mph 1033.5mb 38f
12:00 23 24 mph 1033.4mb 39f
11:00 23 25 mph 1033.4mb 39f
10:00 16 17 mph 1033.1mb 37f
9:00 15 16 mph 1033.1mb 36f
8:00 16 17 mph 1032.8mb 36f
7:00 16 18 mph 1032.2mb 35f
6:00 14 15 mph 1031.7mb 35f
5:00 14 15 mph 1031.5mb 35f
4:00 14 15 mph 1030.8mb 35f
3:00 9
mph
1031mb 35f
2:00 5 6 mph 1030.8mb 36f
1:00 6
mph
1030.7mb 36f
12:00 8 9 mph 1030.4mb 36f
sam. 03/25 11:00 8
mph
1030.1mb 37f
10:00 9
mph
1029.6mb 37f
9:00 11 13 mph 1029.2mb 37f
8:00 10 11 mph 1028.5mb 37f
7:00 9 10 mph 1027mb 37f
6:00 7
mph
1025.8mb 37f
5:00 9 10 mph 1025.9mb 37f
4:00 17 18 mph 1025.7mb 38f
3:00 16 18 mph 1025.1mb 40f
2:00 21 22 mph 1023.5mb 41f
1:00 17 18 mph 1023.7mb 41f
12:00 21 22 mph 1023.1mb 40f
11:00 14 16 mph 1023.4mb 40f
10:00 11
mph
1022.9mb 42f